Theta_e
289 289 288 286 285 284 283 281 280 279 279 279 279 279 279 279 279 279 278 278 278 278
289 288 286 285 284 283 280 281 279 279 279 279 279 279 279 279 278 278 278 278 278 278
288 287 285 284 282 282 279 280 279 278 278 278 279 279 279 278 278 277 277 277 277 277
285 285 284 283 282 280 280 279 279 279 279 279 278 278 278 278 278 277 277 277 277 276
284 284 283 282 281 279 279 279 279 279 279 279 279 278 278 278 277 277 276 276 276 275
283 283 283 281 279 279 279 279 279 279 279 279 279 278 278 278 278 277 277 277 276 275
283 283 282 281 280 279 279 279 279 279 279 279 279 279 279 278 277 277 278 277 276 275
283 283 282 280 280 280 279 279 279 279 279 279 278 278 278 278 277 277 276 276 276 276
281 281 280 280 280 279 279 279 279 278 278 277 278 282 283 279 277 277 276 275 275 275
281 281 281 281 280 279 279 279 278 278 277 277 278 283 284 283 277 277 275 275 275 275
281 281 281 280 279 279 279 278 278 277 278 278 278 284 285 285 277 276 276 275 275 275
282 281 280 280 279 279 278 278 278 278 278 278 278 283 284 284 280 278 276 276 275 275
282 281 280 281 279 279 279 279 278 278 279 278 279 282 284 284 280 278 277 276 276 278
282 281 282 281 281 279 279 278 278 278 278 279 279 279 284 286 280 279 277 276 274 275
Wind_Speed
11 9 8 11 10 10 10 8 7 6 6 7 8 7 7 6 6 7 6 8 5 5
11 12 10 10 10 7 6 7 8 8 8 7 7 8 8 7 7 6 5 6 6 6
12 11 11 10 12 11 7 10 10 8 8 8 7 8 8 6 6 7 4 4 7 5
11 12 12 12 12 11 10 11 11 10 9 9 8 7 7 7 7 8 6 5 6 6
13 12 13 12 12 11 12 10 10 10 9 8 8 8 9 9 7 8 8 7 6 6
12 13 13 13 12 12 11 10 9 9 10 10 10 9 7 7 8 7 7 8 7 7
14 14 13 13 13 13 13 13 11 10 9 9 9 8 8 7 6 6 6 6 6 6
13 13 13 13 13 13 12 11 10 9 7 7 8 7 8 8 7 7 6 5 6 6
13 13 13 13 13 13 12 11 11 10 10 9 6 14 15 10 7 6 7 7 6 5
14 14 14 14 14 14 14 13 12 11 11 10 7 17 16 16 6 7 6 6 6 5
14 14 13 14 14 13 12 13 12 11 11 9 8 16 17 16 6 5 7 7 7 6
16 16 15 15 14 12 10 8 9 9 10 9 6 17 18 14 7 7 8 7 7 7
14 15 15 14 13 10 9 9 7 7 8 9 8 16 21 16 5 7 6 6 7 14
11 12 13 12 9 11 9 8 7 6 6 10 10 10 20 17 7 8 6 6 5 5
Wind_Direction
162 164 169 169 165 162 163 163 157 147 139 132 125 121 113 104 103 110 110 118 110 111
166 164 166 162 161 164 140 147 150 150 144 138 132 130 123 126 119 117 121 123 120 108
167 162 160 161 162 161 149 146 152 149 147 143 138 132 124 122 131 129 131 134 126 115
162 163 163 171 167 162 155 155 159 158 153 152 144 137 129 138 146 137 137 137 129 125
164 165 169 171 167 159 162 160 158 156 153 150 149 151 151 155 160 152 152 150 135 151
172 170 175 169 162 161 155 156 155 158 163 163 160 158 162 161 162 160 157 159 163 168
181 176 172 166 166 165 164 162 166 171 165 163 160 164 166 160 157 158 166 166 170 168
175 172 168 166 166 163 164 166 162 156 155 153 164 172 167 166 164 167 167 174 186 189
169 166 168 165 166 163 162 156 153 160 162 167 176 187 184 170 169 175 183 193 200 197
167 170 170 163 162 167 167 159 165 165 166 177 176 187 191 193 179 188 195 192 194 202
168 167 162 161 168 166 165 168 169 172 175 176 189 190 206 200 175 193 202 198 199 199
169 164 164 171 167 157 153 162 170 170 166 176 177 197 213 203 185 204 218 204 203 203
168 166 167 160 156 150 153 163 164 165 178 181 199 208 215 208 180 206 215 209 213 215
163 159 159 149 147 145 152 148 160 165 176 205 204 210 221 222 206 214 214 215 218 213